Regional Weather Roundup
Issued by NWS Kansas City/Pleasant Hill, MO

Home | Current Version | Previous Version | Graphics & Text | Print | Product List | Glossary Off
Versions: 1 2 3 4 5 6 7 8 9 10 11 12 13 14 15 16 17 18 19 20 21 22 23 24 25 26 27

000
ASUS43 KEAX 221910
RWREAX

WEATHER ROUNDUP FOR EASTERN KANSAS AND NORTHWEST MISSOURI
NATIONAL WEATHER SERVICE KANSAS CITY/PLEASANT HILL MO
100 PM CST WED NOV 22 2017

KSZ040-057-103>105-MOZ028-029-037-043-222000-
...KANSAS CITY METROPOLITAN AREA...

CITY           SKY/WX    TMP DP  RH WIND       PRES   REMARKS
K.C. INTL      SUNNY     38  13  35 SW10      30.32F WCI  31
K.C. DOWNTOWN  SUNNY     40  13  33 S7        30.33F
LEES SUMMIT    SUNNY     39  15  37 S7        30.33F WCI  34
OLATHE - IXD   SUNNY     38  16  40 S9        30.33F WCI  31
OLATHE - OJC   SUNNY     37  16  42 SE5       30.32F WCI  33
LAWRENCE       SUNNY     39  14  36 CALM      30.33F

$$

MOZ001>008-011>017-020>025-030>033-038>040-044>046-053-054-222000-
...NORTHERN AND CENTRAL MISSOURI...

CITY           SKY/WX    TMP DP  RH WIND       PRES   REMARKS
ST. JOSEPH     SUNNY     37  13  37 SW7       30.33F WCI  32
MOSBY          CLEAR     37  12  35 SE5       30.32F WCI  34
WARRENSBURG    SUNNY     36  16  44 SE5       30.35F WCI  32
WHITEMAN AFB   MOSUNNY   38  15  37 W5        30.30F WCI  35
CLINTON        SUNNY     39  16  38 MISG      30.36F
SEDALIA        SUNNY     39  18  42 W3        30.35F
WARSAW         NOT AVBL
CHILLICOTHE      N/A     37  16  42 S6        30.34F WCI  32
KIRKSVILLE     SUNNY     38  16  40 W9        30.32F WCI  31

$$

MOZ041-047>049-056>058-063>065-088>090-097-222000-
...EASTERN AND SOUTHERN MISSOURI...

CITY           SKY/WX    TMP DP  RH WIND       PRES   REMARKS
ST. LOUIS INTL SUNNY     38  19  46 NW5       30.35F WCI  34
SPIRIT OF STL  SUNNY     38  18  44 CALM      30.34F
COLUMBIA       SUNNY     39  16  39 CALM      30.33F
JEFFERSON CITY SUNNY     38  16  40 VRB5      30.35F WCI  34
ROLLA          SUNNY     39  17  41 NW6       30.32F WCI  35
OSAGE BEACH    SUNNY     40  15  36 VRB5      30.34F
SPRINGFIELD    SUNNY     43  18  36 VRB6      30.32F
BRANSON        SUNNY     41  18  38 CALM      30.33F
JOPLIN         SUNNY     41  21  44 CALM      30.36F
WEST PLAINS    SUNNY     44  14  29 VRB6      30.31F

$$

IAZ060-094-KSZ022-034>040-054-083-096-NEZ052-066-093-222000-
...KANSAS...SOUTHEAST NEBRASKA AND IOWA...

CITY           SKY/WX    TMP DP  RH WIND       PRES   REMARKS
TOPEKA         SUNNY     39  15  37 SW6       30.33F WCI  35
MANHATTAN      MOSUNNY   42  15  33 SW10      30.31F
EMPORIA        CLOUDY    41  15  35 SW7       30.33F
CHANUTE        SUNNY     41  17  38 CALM      30.36F
WICHITA        MOSUNNY   41  16  36 S7        30.33F
OMAHA          PTSUNNY   35  13  40 S15       30.26F WCI  25
LINCOLN        MOSUNNY   37  14  38 S17       30.25F WCI  27
FALLS CITY     CLOUDY    37  13  37 SW12      30.31F WCI  29
LAMONI         SUNNY     36  14  40 SW10      30.29F WCI  28
DES MOINES     MOSUNNY   35  12  38 SW8       30.28F WCI  29

$$





USA.gov is the U.S. government's official web portal to all federal, state and local government web resources and services.